Time,TemperatureF,DewpointF,PressureIn,WindDirection,WindDirectionDegrees,WindSpeedMPH,WindSpeedGustMPH,Humidity,HourlyPrecipIn,Conditions,Clouds,dailyrainin,SoftwareType,DateUTC
2013-03-12 00:00:00,58.3,50.1,31.49,ENE,65,9.0,12.0,74,0.00,,,0.00,VWS V13.01,2013-03-12 04:00:00,
2013-03-12 00:01:00,58.4,50.2,31.49,ENE,75,10.0,10.0,74,0.00,,,0.00,VWS V13.01,2013-03-12 04:01:00,
2013-03-12 00:06:00,58.2,50.3,31.49,ENE,61,6.0,9.0,75,0.00,,,0.00,VWS V13.01,2013-03-12 04:06:00,
2013-03-12 00:11:00,58.2,50.3,31.49,SE,130,5.0,15.0,75,0.00,,,0.00,VWS V13.01,2013-03-12 04:11:00,
2013-03-12 00:16:00,58.2,50.7,31.49,ESE,119,7.0,9.0,76,0.00,,,0.00,VWS V13.01,2013-03-12 04:16:00,
2013-03-12 00:21:00,58.1,50.6,31.49,ENE,70,6.0,14.0,76,0.00,,,0.00,VWS V13.01,2013-03-12 04:21:00,
2013-03-12 00:26:00,58.1,50.6,31.49,ENE,65,3.0,6.0,76,0.00,,,0.00,VWS V13.01,2013-03-12 04:26:00,
2013-03-12 00:31:00,58.1,50.6,31.49,NE,46,5.0,11.0,76,0.00,,,0.00,VWS V13.01,2013-03-12 04:31:00,
2013-03-12 00:36:00,58.2,50.7,31.49,ESE,103,10.0,14.0,76,0.00,,,0.00,VWS V13.01,2013-03-12 04:36:00,
2013-03-12 00:41:00,58.3,50.4,31.49,SE,126,9.0,13.0,75,0.00,,,0.00,VWS V13.01,2013-03-12 04:41:00,
2013-03-12 00:46:00,58.3,50.4,31.49,East,92,4.0,12.0,75,0.00,,,0.00,VWS V13.01,2013-03-12 04:46:00,
2013-03-12 00:51:00,58.3,50.4,31.49,NE,55,11.0,11.0,75,0.00,,,0.00,VWS V13.01,2013-03-12 04:51:00,
2013-03-12 00:56:00,58.4,50.5,31.49,SE,140,4.0,9.0,75,0.00,,,0.00,VWS V13.01,2013-03-12 04:56:00,
2013-03-12 01:01:00,58.4,50.9,31.49,ESE,110,5.0,8.0,76,0.00,,,0.00,VWS V13.01,2013-03-12 05:01:00,
2013-03-12 01:06:00,58.7,50.8,31.49,ENE,74,3.0,11.0,75,0.00,,,0.00,VWS V13.01,2013-03-12 05:06:00,
2013-03-12 01:11:00,58.7,50.8,31.49,ESE,123,4.0,16.0,75,0.00,,,0.00,VWS V13.01,2013-03-12 05:11:00,
2013-03-12 01:16:00,59.0,51.1,31.49,NNE,28,10.0,16.0,75,0.00,,,0.00,VWS V13.01,2013-03-12 05:16:00,
2013-03-12 01:21:00,59.0,51.1,31.49,SE,140,9.0,18.0,75,0.00,,,0.00,VWS V13.01,2013-03-12 05:21:00,
2013-03-12 01:27:00,59.0,51.1,31.49,ENE,58,15.0,15.0,75,0.00,,,0.00,VWS V13.01,2013-03-12 05:27:00,
2013-03-12 01:32:00,59.0,51.1,31.49,SE,140,7.0,12.0,75,0.00,,,0.00,VWS V13.01,2013-03-12 05:32:00,
2013-03-12 01:37:00,59.0,51.1,31.49,ESE,113,7.0,13.0,75,0.00,,,0.00,VWS V13.01,2013-03-12 05:37:00,
2013-03-12 01:42:00,59.1,51.2,31.49,ENE,71,6.0,20.0,75,0.00,,,0.00,VWS V13.01,2013-03-12 05:42:00,
2013-03-12 01:47:00,59.0,51.1,31.49,SE,126,6.0,10.0,75,0.00,,,0.00,VWS V13.01,2013-03-12 05:47:00,
2013-03-12 01:52:00,59.0,51.1,31.49,NE,53,10.0,16.0,75,0.00,,,0.00,VWS V13.01,2013-03-12 05:52:00,
2013-03-12 01:57:00,59.0,51.1,31.49,East,94,3.0,19.0,75,0.00,,,0.00,VWS V13.01,2013-03-12 05:57:00,
2013-03-12 02:02:00,59.0,51.1,31.49,ESE,109,6.0,17.0,75,0.00,,,0.00,VWS V13.01,2013-03-12 06:02:00,
2013-03-12 02:07:00,59.0,51.1,31.49,South,178,4.0,11.0,75,0.00,,,0.00,VWS V13.01,2013-03-12 06:07:00,
2013-03-12 02:12:00,59.0,51.5,31.49,ENE,78,7.0,14.0,76,0.00,,,0.00,VWS V13.01,2013-03-12 06:12:00,
2013-03-12 02:17:00,58.7,51.2,31.49,ESE,103,10.0,14.0,76,0.00,,,0.00,VWS V13.01,2013-03-12 06:17:00,
2013-03-12 02:22:00,58.4,51.2,31.49,SSE,165,3.0,12.0,77,0.00,,,0.00,VWS V13.01,2013-03-12 06:22:00,
2013-03-12 02:27:00,58.3,51.5,31.49,SE,126,8.0,14.0,78,0.00,,,0.00,VWS V13.01,2013-03-12 06:27:00,
2013-03-12 02:32:00,58.0,51.5,31.49,East,94,8.0,13.0,79,0.00,,,0.00,VWS V13.01,2013-03-12 06:32:00,
2013-03-12 02:37:00,58.0,51.5,31.49,SSE,148,5.0,10.0,79,0.00,,,0.00,VWS V13.01,2013-03-12 06:37:00,
2013-03-12 02:42:00,58.0,51.2,31.49,East,84,4.0,12.0,78,0.00,,,0.00,VWS V13.01,2013-03-12 06:42:00,
2013-03-12 02:47:00,58.0,51.5,31.49,SSE,163,3.0,7.0,79,0.00,,,0.00,VWS V13.01,2013-03-12 06:47:00,
2013-03-12 02:52:00,57.8,51.3,31.49,SE,142,5.0,9.0,79,0.00,,,0.00,VWS V13.01,2013-03-12 06:52:00,
2013-03-12 02:57:00,57.7,51.6,31.49,NE,55,5.0,17.0,80,0.00,,,0.00,VWS V13.01,2013-03-12 06:57:00,
2013-03-12 03:02:00,57.4,51.6,31.49,East,80,4.0,10.0,81,0.00,,,0.00,VWS V13.01,2013-03-12 07:02:00,
2013-03-12 03:07:00,57.3,51.5,31.49,ESE,107,5.0,10.0,81,0.00,,,0.00,VWS V13.01,2013-03-12 07:07:00,
2013-03-12 03:12:00,57.3,51.5,31.49,SE,129,2.0,10.0,81,0.00,,,0.00,VWS V13.01,2013-03-12 07:12:00,
2013-03-12 03:17:00,57.2,51.4,31.49,East,84,7.0,7.0,81,0.00,,,0.00,VWS V13.01,2013-03-12 07:17:00,
2013-03-12 03:22:00,57.2,51.4,31.49,ENE,62,4.0,11.0,81,0.00,,,0.00,VWS V13.01,2013-03-12 07:22:00,
2013-03-12 03:27:00,57.2,51.4,31.49,East,100,10.0,10.0,81,0.00,,,0.00,VWS V13.01,2013-03-12 07:27:00,
2013-03-12 03:32:00,57.3,51.5,31.49,ESE,108,4.0,6.0,81,0.00,,,0.00,VWS V13.01,2013-03-12 07:32:00,
2013-03-12 03:37:00,57.3,51.5,31.49,ESE,104,5.0,8.0,81,0.00,,,0.00,VWS V13.01,2013-03-12 07:37:00,
2013-03-12 03:42:00,57.3,51.5,31.49,East,96,3.0,9.0,81,0.00,,,0.00,VWS V13.01,2013-03-12 07:42:00,
2013-03-12 03:47:00,57.4,51.6,31.49,ESE,103,6.0,11.0,81,0.00,,,0.00,VWS V13.01,2013-03-12 07:47:00,
2013-03-12 03:52:00,57.5,51.7,31.49,ESE,123,3.0,10.0,81,0.00,,,0.00,VWS V13.01,2013-03-12 07:52:00,
2013-03-12 03:57:00,57.5,51.7,31.49,ESE,117,3.0,10.0,81,0.00,,,0.00,VWS V13.01,2013-03-12 07:57:00,
2013-03-12 04:02:00,57.5,51.7,31.49,ESE,105,11.0,11.0,81,0.00,,,0.00,VWS V13.01,2013-03-12 08:02:00,
2013-03-12 04:07:00,57.6,51.8,31.49,NE,42,6.0,7.0,81,0.00,,,0.00,VWS V13.01,2013-03-12 08:07:00,
2013-03-12 04:12:00,57.4,52.0,31.49,ESE,122,12.0,16.0,82,0.00,,,0.00,VWS V13.01,2013-03-12 08:12:00,
2013-03-12 04:17:00,57.4,52.0,31.49,ESE,109,3.0,9.0,82,0.00,,,0.00,VWS V13.01,2013-03-12 08:17:00,
2013-03-12 04:22:00,57.3,51.9,31.49,ESE,119,6.0,8.0,82,0.00,,,0.00,VWS V13.01,2013-03-12 08:22:00,
2013-03-12 04:27:00,57.3,51.9,31.49,ESE,106,9.0,11.0,82,0.00,,,0.00,VWS V13.01,2013-03-12 08:27:00,
2013-03-12 04:32:00,57.4,52.0,31.49,East,90,14.0,14.0,82,0.00,,,0.00,VWS V13.01,2013-03-12 08:32:00,
2013-03-12 04:37:00,57.4,52.0,31.49,East,94,4.0,11.0,82,0.00,,,0.00,VWS V13.01,2013-03-12 08:37:00,
2013-03-12 04:42:00,57.5,52.1,31.49,ESE,108,14.0,15.0,82,0.00,,,0.00,VWS V13.01,2013-03-12 08:42:00,
2013-03-12 04:47:00,57.5,52.1,31.49,East,100,4.0,12.0,82,0.00,,,0.00,VWS V13.01,2013-03-12 08:47:00,
2013-03-12 04:52:00,57.5,52.1,31.49,ESE,117,5.0,11.0,82,0.00,,,0.00,VWS V13.01,2013-03-12 08:52:00,
2013-03-12 04:57:00,57.4,52.3,31.49,East,101,3.0,11.0,83,0.00,,,0.00,VWS V13.01,2013-03-12 08:57:00,
2013-03-12 05:02:00,57.2,52.1,31.49,SE,133,8.0,14.0,83,0.00,,,0.00,VWS V13.01,2013-03-12 09:02:00,
2013-03-12 05:07:00,57.0,52.2,31.49,East,84,6.0,13.0,84,0.01,,,0.01,VWS V13.01,2013-03-12 09:07:00,
2013-03-12 05:12:00,56.9,52.1,31.49,ESE,111,8.0,11.0,84,0.01,,,0.01,VWS V13.01,2013-03-12 09:12:00,
2013-03-12 05:17:00,56.8,52.3,31.49,NE,42,4.0,6.0,85,0.01,,,0.01,VWS V13.01,2013-03-12 09:17:00,
2013-03-12 05:22:00,56.6,52.2,31.49,SSE,159,7.0,7.0,85,0.01,,,0.01,VWS V13.01,2013-03-12 09:22:00,
2013-03-12 05:27:00,56.6,52.5,31.49,ESE,115,1.0,13.0,86,0.01,,,0.01,VWS V13.01,2013-03-12 09:27:00,
2013-03-12 05:32:00,56.5,52.4,31.49,SE,125,7.0,7.0,86,0.01,,,0.01,VWS V13.01,2013-03-12 09:32:00,
2013-03-12 05:37:00,56.4,52.3,31.49,East,98,6.0,7.0,86,0.01,,,0.01,VWS V13.01,2013-03-12 09:37:00,
2013-03-12 05:42:00,56.4,52.3,31.49,ESE,114,4.0,11.0,86,0.01,,,0.01,VWS V13.01,2013-03-12 09:42:00,
2013-03-12 05:47:00,56.4,52.6,31.49,ESE,115,4.0,7.0,87,0.01,,,0.01,VWS V13.01,2013-03-12 09:47:00,
2013-03-12 05:52:00,56.3,52.5,31.49,East,88,3.0,6.0,87,0.01,,,0.01,VWS V13.01,2013-03-12 09:52:00,
2013-03-12 05:57:00,56.4,52.6,31.49,ENE,64,3.0,9.0,87,0.02,,,0.02,VWS V13.01,2013-03-12 09:57:00,
2013-03-12 06:02:00,56.4,52.9,31.49,East,80,4.0,9.0,88,0.02,,,0.02,VWS V13.01,2013-03-12 10:02:00,
2013-03-12 06:07:00,56.3,52.8,31.49,ESE,102,2.0,6.0,88,0.01,,,0.02,VWS V13.01,2013-03-12 10:07:00,
2013-03-12 06:12:00,56.3,52.8,31.49,East,83,3.0,4.0,88,0.01,,,0.02,VWS V13.01,2013-03-12 10:12:00,
2013-03-12 06:17:00,56.4,52.9,31.49,SE,127,6.0,6.0,88,0.01,,,0.02,VWS V13.01,2013-03-12 10:17:00,
2013-03-12 06:22:00,56.4,52.9,31.49,ENE,78,1.0,6.0,88,0.01,,,0.02,VWS V13.01,2013-03-12 10:22:00,
2013-03-12 06:27:00,56.4,53.2,31.49,East,91,4.0,8.0,89,0.01,,,0.02,VWS V13.01,2013-03-12 10:27:00,
2013-03-12 06:32:00,56.4,53.2,31.49,ESE,113,0.0,7.0,89,0.01,,,0.02,VWS V13.01,2013-03-12 10:32:00,
2013-03-12 06:37:00,56.4,53.2,31.49,East,91,5.0,5.0,89,0.02,,,0.03,VWS V13.01,2013-03-12 10:37:00,
2013-03-12 06:42:00,56.4,53.2,31.49,ESE,107,5.0,6.0,89,0.02,,,0.03,VWS V13.01,2013-03-12 10:42:00,
2013-03-12 06:47:00,56.4,53.5,31.49,ESE,104,5.0,7.0,90,0.02,,,0.03,VWS V13.01,2013-03-12 10:47:00,
2013-03-12 06:52:00,56.4,53.5,31.49,ENE,61,6.0,11.0,90,0.03,,,0.04,VWS V13.01,2013-03-12 10:52:00,
2013-03-12 06:57:00,56.4,53.5,31.49,SSW,200,2.0,9.0,90,0.02,,,0.04,VWS V13.01,2013-03-12 10:57:00,
2013-03-12 07:02:00,56.5,53.9,31.49,East,90,1.0,7.0,91,0.03,,,0.05,VWS V13.01,2013-03-12 11:02:00,
2013-03-12 07:07:00,56.4,53.8,31.49,ESE,104,6.0,10.0,91,0.04,,,0.06,VWS V13.01,2013-03-12 11:07:00,
2013-03-12 07:12:00,56.4,53.8,31.49,ENE,78,3.0,9.0,91,0.04,,,0.06,VWS V13.01,2013-03-12 11:12:00,
2013-03-12 07:18:00,56.4,53.8,31.49,NE,52,9.0,10.0,91,0.05,,,0.07,VWS V13.01,2013-03-12 11:18:00,
2013-03-12 07:23:00,56.4,54.1,31.49,ENE,64,5.0,9.0,92,0.06,,,0.08,VWS V13.01,2013-03-12 11:23:00,
2013-03-12 07:28:00,56.4,54.1,31.49,SE,128,0.0,7.0,92,0.08,,,0.10,VWS V13.01,2013-03-12 11:28:00,
2013-03-12 07:33:00,56.4,54.1,31.49,ENE,64,5.0,7.0,92,0.09,,,0.11,VWS V13.01,2013-03-12 11:33:00,
2013-03-12 07:37:00,56.3,54.0,31.49,ENE,57,5.0,10.0,92,0.10,,,0.12,VWS V13.01,2013-03-12 11:37:00,
2013-03-12 07:42:00,56.3,54.0,31.49,East,90,5.0,10.0,92,0.10,,,0.13,VWS V13.01,2013-03-12 11:42:00,
2013-03-12 07:48:00,56.4,54.1,31.49,ESE,113,6.0,11.0,92,0.11,,,0.14,VWS V13.01,2013-03-12 11:48:00,
2013-03-12 07:53:00,56.4,54.1,31.49,ENE,69,4.0,7.0,92,0.10,,,0.14,VWS V13.01,2013-03-12 11:53:00,
2013-03-12 07:58:00,56.4,54.4,31.49,NE,56,6.0,10.0,93,0.10,,,0.14,VWS V13.01,2013-03-12 11:58:00,
2013-03-12 08:03:00,56.4,54.4,31.49,East,101,2.0,11.0,93,0.09,,,0.14,VWS V13.01,2013-03-12 12:03:00,
2013-03-12 08:08:00,56.4,54.4,31.49,East,95,6.0,14.0,93,0.09,,,0.14,VWS V13.01,2013-03-12 12:08:00,
2013-03-12 08:13:00,56.5,54.5,31.49,East,84,2.0,7.0,93,0.08,,,0.14,VWS V13.01,2013-03-12 12:13:00,
2013-03-12 08:18:00,56.5,54.5,31.49,ESE,110,2.0,11.0,93,0.07,,,0.14,VWS V13.01,2013-03-12 12:18:00,
2013-03-12 08:23:00,56.6,54.6,31.49,SE,133,1.0,8.0,93,0.07,,,0.15,VWS V13.01,2013-03-12 12:23:00,
2013-03-12 08:28:00,56.7,54.7,31.49,East,98,4.0,8.0,93,0.05,,,0.15,VWS V13.01,2013-03-12 12:28:00,
2013-03-12 08:33:00,56.8,54.8,31.49,NE,55,4.0,12.0,93,0.04,,,0.15,VWS V13.01,2013-03-12 12:33:00,
2013-03-12 08:38:00,56.9,54.9,31.49,East,82,9.0,12.0,93,0.03,,,0.15,VWS V13.01,2013-03-12 12:38:00,
2013-03-12 08:43:00,56.9,54.9,31.49,South,172,4.0,11.0,93,0.02,,,0.15,VWS V13.01,2013-03-12 12:43:00,
2013-03-12 08:48:00,57.0,55.0,31.49,SE,126,2.0,11.0,93,0.02,,,0.15,VWS V13.01,2013-03-12 12:48:00,
2013-03-12 08:53:00,57.2,55.2,31.49,East,101,5.0,13.0,93,0.01,,,0.15,VWS V13.01,2013-03-12 12:53:00,
2013-03-12 08:58:00,57.3,55.3,31.49,NE,55,4.0,12.0,93,0.01,,,0.15,VWS V13.01,2013-03-12 12:58:00,
2013-03-12 09:03:00,57.4,55.1,31.49,East,88,4.0,15.0,92,0.01,,,0.15,VWS V13.01,2013-03-12 13:03:00,
2013-03-12 09:08:00,57.5,55.2,31.49,ENE,64,4.0,9.0,92,0.01,,,0.15,VWS V13.01,2013-03-12 13:08:00,
2013-03-12 09:13:00,57.5,55.2,31.49,East,96,6.0,12.0,92,0.01,,,0.15,VWS V13.01,2013-03-12 13:13:00,
2013-03-12 09:18:00,57.5,55.2,31.49,ESE,114,3.0,14.0,92,0.01,,,0.15,VWS V13.01,2013-03-12 13:18:00,
2013-03-12 09:23:00,57.6,55.3,31.49,ESE,121,7.0,17.0,92,0.01,,,0.15,VWS V13.01,2013-03-12 13:23:00,
2013-03-12 09:28:00,57.7,55.4,31.49,SE,138,12.0,13.0,92,0.00,,,0.15,VWS V13.01,2013-03-12 13:28:00,
2013-03-12 09:33:00,57.8,55.5,31.49,East,96,11.0,13.0,92,0.00,,,0.15,VWS V13.01,2013-03-12 13:33:00,
2013-03-12 09:38:00,57.8,55.5,31.49,East,86,6.0,14.0,92,0.00,,,0.15,VWS V13.01,2013-03-12 13:38:00,
2013-03-12 09:43:00,57.9,55.6,31.49,East,92,6.0,15.0,92,0.00,,,0.15,VWS V13.01,2013-03-12 13:43:00,
2013-03-12 09:48:00,58.0,55.7,31.49,ESE,119,5.0,10.0,92,0.01,,,0.16,VWS V13.01,2013-03-12 13:48:00,
2013-03-12 09:53:00,58.0,55.7,31.49,SE,130,2.0,12.0,92,0.01,,,0.16,VWS V13.01,2013-03-12 13:53:00,
2013-03-12 09:58:00,57.9,55.6,31.49,ESE,115,10.0,14.0,92,0.03,,,0.18,VWS V13.01,2013-03-12 13:58:00,
2013-03-12 10:03:00,58.0,56.0,31.49,East,91,3.0,11.0,93,0.05,,,0.20,VWS V13.01,2013-03-12 14:03:00,
2013-03-12 10:08:00,57.9,55.9,31.49,East,94,7.0,14.0,93,0.07,,,0.22,VWS V13.01,2013-03-12 14:08:00,
2013-03-12 10:13:00,58.0,56.0,31.49,East,101,5.0,12.0,93,0.07,,,0.22,VWS V13.01,2013-03-12 14:13:00,
2013-03-12 10:18:00,58.1,56.1,31.49,ESE,111,10.0,17.0,93,0.09,,,0.24,VWS V13.01,2013-03-12 14:18:00,
2013-03-12 10:23:00,58.2,56.2,31.49,ESE,107,11.0,18.0,93,0.09,,,0.24,VWS V13.01,2013-03-12 14:23:00,
2013-03-12 10:28:00,58.3,56.3,31.49,SE,129,13.0,16.0,93,0.09,,,0.24,VWS V13.01,2013-03-12 14:28:00,
2013-03-12 10:33:00,58.4,56.4,31.49,SW,225,6.0,16.0,93,0.09,,,0.24,VWS V13.01,2013-03-12 14:33:00,
2013-03-12 10:38:00,58.9,56.9,31.49,West,259,5.0,11.0,93,0.09,,,0.24,VWS V13.01,2013-03-12 14:38:00,
2013-03-12 10:43:00,58.6,56.6,31.49,SSW,200,2.0,7.0,93,0.23,,,0.38,VWS V13.01,2013-03-12 14:43:00,
2013-03-12 10:48:00,58.2,56.2,31.49,SE,141,2.0,6.0,93,0.37,,,0.52,VWS V13.01,2013-03-12 14:48:00,
2013-03-12 10:53:00,58.3,56.3,31.49,SW,217,1.0,4.0,93,0.40,,,0.56,VWS V13.01,2013-03-12 14:53:00,
2013-03-12 10:58:00,58.5,56.5,31.49,SSW,196,2.0,6.0,93,0.41,,,0.58,VWS V13.01,2013-03-12 14:58:00,
2013-03-12 11:03:00,58.5,56.5,31.49,WSW,238,7.0,7.0,93,0.41,,,0.60,VWS V13.01,2013-03-12 15:03:00,
2013-03-12 11:08:00,58.3,56.3,31.49,WSW,242,5.0,11.0,93,0.40,,,0.62,VWS V13.01,2013-03-12 15:08:00,
2013-03-12 11:13:00,57.9,55.9,31.49,NW,315,6.0,13.0,93,0.42,,,0.64,VWS V13.01,2013-03-12 15:13:00,
2013-03-12 11:18:00,57.7,55.7,31.49,West,261,3.0,9.0,93,0.43,,,0.66,VWS V13.01,2013-03-12 15:18:00,
2013-03-12 11:23:00,57.4,55.1,31.49,West,267,13.0,14.0,92,0.43,,,0.67,VWS V13.01,2013-03-12 15:23:00,
2013-03-12 11:28:00,56.0,53.4,31.49,WNW,299,9.0,17.0,91,0.44,,,0.68,VWS V13.01,2013-03-12 15:28:00,
2013-03-12 11:33:00,54.4,51.5,31.49,West,271,11.0,19.0,90,0.47,,,0.71,VWS V13.01,2013-03-12 15:33:00,
2013-03-12 11:38:00,53.2,50.3,31.49,SW,216,5.0,17.0,90,0.51,,,0.75,VWS V13.01,2013-03-12 15:38:00,
2013-03-12 11:43:00,52.5,49.7,31.49,West,277,16.0,21.0,90,0.51,,,0.76,VWS V13.01,2013-03-12 15:43:00,
2013-03-12 11:48:00,51.9,49.1,31.49,NW,306,15.0,16.0,90,0.31,,,0.76,VWS V13.01,2013-03-12 15:48:00,
2013-03-12 11:53:00,51.6,48.8,31.49,WSW,241,5.0,18.0,90,0.22,,,0.77,VWS V13.01,2013-03-12 15:53:00,
2013-03-12 11:58:00,51.7,48.9,31.49,WSW,256,5.0,15.0,90,0.20,,,0.77,VWS V13.01,2013-03-12 15:58:00,
2013-03-12 12:03:00,51.5,48.4,31.49,WNW,284,7.0,15.0,89,0.18,,,0.77,VWS V13.01,2013-03-12 16:03:00,
2013-03-12 12:08:00,51.4,48.3,31.49,WNW,300,15.0,16.0,89,0.16,,,0.77,VWS V13.01,2013-03-12 16:08:00,
2013-03-12 12:13:00,51.5,48.4,31.49,WSW,249,3.0,12.0,89,0.14,,,0.77,VWS V13.01,2013-03-12 16:13:00,
2013-03-12 12:18:00,51.4,48.0,31.49,West,264,4.0,13.0,88,0.13,,,0.77,VWS V13.01,2013-03-12 16:18:00,
2013-03-12 12:23:00,51.5,48.1,31.49,WSW,241,6.0,14.0,88,0.11,,,0.77,VWS V13.01,2013-03-12 16:23:00,
2013-03-12 12:28:00,51.9,48.2,31.49,WSW,252,4.0,15.0,87,0.10,,,0.77,VWS V13.01,2013-03-12 16:28:00,
2013-03-12 12:33:00,52.6,48.8,31.49,WSW,239,15.0,17.0,87,0.08,,,0.77,VWS V13.01,2013-03-12 16:33:00,
2013-03-12 12:38:00,53.1,49.0,31.49,West,264,12.0,16.0,86,0.04,,,0.77,VWS V13.01,2013-03-12 16:38:00,
2013-03-12 12:43:00,53.4,48.7,31.49,WNW,294,13.0,17.0,84,0.02,,,0.77,VWS V13.01,2013-03-12 16:43:00,
2013-03-12 12:48:00,53.8,49.1,31.49,West,263,11.0,18.0,84,0.01,,,0.77,VWS V13.01,2013-03-12 16:48:00,
2013-03-12 12:53:00,54.3,49.3,31.49,WNW,282,4.0,16.0,83,0.00,,,0.77,VWS V13.01,2013-03-12 16:53:00,
2013-03-12 12:58:00,54.6,49.2,31.49,West,262,7.0,14.0,82,0.00,,,0.77,VWS V13.01,2013-03-12 16:58:00,
2013-03-12 13:03:00,54.8,49.1,31.49,West,271,11.0,19.0,81,0.00,,,0.77,VWS V13.01,2013-03-12 17:03:00,
2013-03-12 13:08:00,55.1,49.4,31.49,WSW,246,16.0,16.0,81,0.00,,,0.77,VWS V13.01,2013-03-12 17:08:00,
2013-03-12 13:13:00,55.5,49.8,31.49,West,274,3.0,13.0,81,0.00,,,0.77,VWS V13.01,2013-03-12 17:13:00,
2013-03-12 13:18:00,56.2,49.8,31.49,West,281,7.0,14.0,79,0.00,,,0.77,VWS V13.01,2013-03-12 17:18:00,
2013-03-12 13:23:00,56.5,50.1,31.49,WSW,240,3.0,11.0,79,0.00,,,0.77,VWS V13.01,2013-03-12 17:23:00,
2013-03-12 13:28:00,56.6,49.8,31.49,West,280,4.0,15.0,78,0.00,,,0.77,VWS V13.01,2013-03-12 17:28:00,
2013-03-12 13:33:00,56.8,50.0,31.49,SW,229,8.0,11.0,78,0.00,,,0.77,VWS V13.01,2013-03-12 17:33:00,
2013-03-12 13:38:00,56.8,49.3,31.49,WNW,297,11.0,13.0,76,0.00,,,0.77,VWS V13.01,2013-03-12 17:38:00,
2013-03-12 13:44:00,56.7,49.6,31.49,WNW,282,13.0,15.0,77,0.00,,,0.77,VWS V13.01,2013-03-12 17:44:00,
2013-03-12 13:49:00,56.7,48.9,31.49,WNW,303,11.0,16.0,75,0.00,,,0.77,VWS V13.01,2013-03-12 17:49:00,
2013-03-12 13:54:00,57.2,49.4,31.49,WSW,254,6.0,16.0,75,0.00,,,0.77,VWS V13.01,2013-03-12 17:54:00,
2013-03-12 13:59:00,57.6,49.4,31.49,West,281,10.0,16.0,74,0.00,,,0.77,VWS V13.01,2013-03-12 17:59:00,
2013-03-12 14:04:00,58.1,50.2,31.49,West,262,2.0,12.0,75,0.00,,,0.77,VWS V13.01,2013-03-12 18:04:00,
2013-03-12 14:09:00,59.0,50.4,31.49,WNW,282,6.0,9.0,73,0.00,,,0.77,VWS V13.01,2013-03-12 18:09:00,
2013-03-12 14:14:00,59.0,50.0,31.49,WNW,288,5.0,15.0,72,0.00,,,0.77,VWS V13.01,2013-03-12 18:14:00,
2013-03-12 14:19:00,59.0,50.0,31.49,WSW,252,3.0,15.0,72,0.00,,,0.77,VWS V13.01,2013-03-12 18:19:00,
2013-03-12 14:24:00,59.0,49.2,31.49,West,263,9.0,16.0,70,0.00,,,0.77,VWS V13.01,2013-03-12 18:24:00,
2013-03-12 14:29:00,59.4,49.6,31.49,West,276,9.0,13.0,70,0.00,,,0.77,VWS V13.01,2013-03-12 18:29:00,
2013-03-12 14:34:00,59.7,49.5,31.49,SW,236,4.0,11.0,69,0.00,,,0.77,VWS V13.01,2013-03-12 18:34:00,
2013-03-12 14:39:00,59.8,49.6,31.49,West,259,10.0,16.0,69,0.00,,,0.77,VWS V13.01,2013-03-12 18:39:00,
2013-03-12 14:44:00,59.4,48.8,31.49,NW,304,9.0,12.0,68,0.00,,,0.77,VWS V13.01,2013-03-12 18:44:00,
2013-03-12 14:49:00,59.0,48.5,31.49,West,264,11.0,15.0,68,0.00,,,0.77,VWS V13.01,2013-03-12 18:49:00,
2013-03-12 14:54:00,58.6,48.1,31.49,West,274,3.0,15.0,68,0.00,,,0.77,VWS V13.01,2013-03-12 18:54:00,
2013-03-12 14:59:00,58.7,47.8,31.49,West,275,11.0,17.0,67,0.00,,,0.77,VWS V13.01,2013-03-12 18:59:00,
2013-03-12 15:04:00,58.3,47.4,31.49,WSW,249,6.0,16.0,67,0.00,,,0.77,VWS V13.01,2013-03-12 19:04:00,
2013-03-12 15:09:00,58.6,48.1,31.49,WSW,239,7.0,15.0,68,0.00,,,0.77,VWS V13.01,2013-03-12 19:09:00,
2013-03-12 15:14:00,59.0,48.5,31.49,WNW,292,5.0,10.0,68,0.00,,,0.77,VWS V13.01,2013-03-12 19:14:00,
2013-03-12 15:19:00,59.0,48.5,31.49,West,264,2.0,13.0,68,0.00,,,0.77,VWS V13.01,2013-03-12 19:19:00,
2013-03-12 15:24:00,58.0,47.5,31.49,NW,305,7.0,17.0,68,0.00,,,0.77,VWS V13.01,2013-03-12 19:24:00,
2013-03-12 15:29:00,57.7,47.6,31.49,West,260,3.0,13.0,69,0.00,,,0.77,VWS V13.01,2013-03-12 19:29:00,
2013-03-12 15:34:00,58.0,47.9,31.49,West,275,11.0,16.0,69,0.00,,,0.77,VWS V13.01,2013-03-12 19:34:00,
2013-03-12 15:39:00,58.4,47.5,31.49,West,271,4.0,14.0,67,0.00,,,0.77,VWS V13.01,2013-03-12 19:39:00,
2013-03-12 15:44:00,59.0,48.1,31.49,WSW,250,7.0,14.0,67,0.00,,,0.77,VWS V13.01,2013-03-12 19:44:00,
2013-03-12 15:49:00,58.7,47.4,31.49,WNW,299,10.0,14.0,66,0.00,,,0.77,VWS V13.01,2013-03-12 19:49:00,
2013-03-12 15:54:00,58.8,47.5,31.49,WNW,286,2.0,12.0,66,0.00,,,0.77,VWS V13.01,2013-03-12 19:54:00,
2013-03-12 15:59:00,59.0,47.7,31.49,WNW,288,9.0,15.0,66,0.00,,,0.77,VWS V13.01,2013-03-12 19:59:00,
2013-03-12 16:04:00,58.6,47.3,31.49,West,276,3.0,15.0,66,0.00,,,0.77,VWS V13.01,2013-03-12 20:04:00,
2013-03-12 16:09:00,58.0,46.7,31.49,West,269,7.0,14.0,66,0.00,,,0.77,VWS V13.01,2013-03-12 20:09:00,
2013-03-12 16:14:00,57.6,46.7,31.49,West,281,6.0,16.0,67,0.00,,,0.77,VWS V13.01,2013-03-12 20:14:00,
2013-03-12 16:19:00,57.7,46.8,31.49,WSW,254,3.0,13.0,67,0.00,,,0.77,VWS V13.01,2013-03-12 20:19:00,
2013-03-12 16:24:00,57.6,46.3,31.49,WSW,252,5.0,13.0,66,0.00,,,0.77,VWS V13.01,2013-03-12 20:24:00,
2013-03-12 16:29:00,57.7,46.4,31.49,West,269,10.0,12.0,66,0.00,,,0.77,VWS V13.01,2013-03-12 20:29:00,
2013-03-12 16:34:00,57.7,46.0,31.49,WNW,296,6.0,12.0,65,0.00,,,0.77,VWS V13.01,2013-03-12 20:34:00,
2013-03-12 16:39:00,57.6,45.9,31.49,West,261,9.0,14.0,65,0.00,,,0.77,VWS V13.01,2013-03-12 20:39:00,
2013-03-12 16:44:00,57.6,45.5,31.49,West,281,9.0,15.0,64,0.00,,,0.77,VWS V13.01,2013-03-12 20:44:00,
2013-03-12 16:49:00,57.7,45.6,31.49,NW,304,7.0,15.0,64,0.00,,,0.77,VWS V13.01,2013-03-12 20:49:00,
2013-03-12 16:54:00,57.1,45.0,31.49,WSW,258,12.0,18.0,64,0.00,,,0.77,VWS V13.01,2013-03-12 20:54:00,
2013-03-12 16:59:00,56.8,44.8,31.49,WSW,244,4.0,18.0,64,0.00,,,0.77,VWS V13.01,2013-03-12 20:59:00,
2013-03-12 17:04:00,57.2,44.3,31.49,West,265,12.0,15.0,62,0.00,,,0.77,VWS V13.01,2013-03-12 21:04:00,
2013-03-12 17:09:00,56.9,43.6,31.49,WSW,241,7.0,17.0,61,0.00,,,0.77,VWS V13.01,2013-03-12 21:09:00,
2013-03-12 17:14:00,57.0,43.7,31.49,WNW,292,5.0,16.0,61,0.00,,,0.77,VWS V13.01,2013-03-12 21:14:00,
2013-03-12 17:19:00,56.9,42.7,31.49,WSW,253,5.0,18.0,59,0.00,,,0.77,VWS V13.01,2013-03-12 21:19:00,
2013-03-12 17:24:00,56.5,42.4,31.49,NW,313,15.0,20.0,59,0.00,,,0.77,VWS V13.01,2013-03-12 21:24:00,
2013-03-12 17:29:00,56.6,42.5,31.49,WSW,249,11.0,12.0,59,0.00,,,0.77,VWS V13.01,2013-03-12 21:29:00,
2013-03-12 17:34:00,56.8,43.1,31.49,SSW,207,11.0,12.0,60,0.00,,,0.77,VWS V13.01,2013-03-12 21:34:00,
2013-03-12 17:39:00,56.8,42.6,31.49,WSW,242,6.0,13.0,59,0.00,,,0.77,VWS V13.01,2013-03-12 21:39:00,
2013-03-12 17:44:00,56.6,42.9,31.49,West,270,4.0,12.0,60,0.00,,,0.77,VWS V13.01,2013-03-12 21:44:00,
2013-03-12 17:49:00,56.2,43.0,31.49,West,280,10.0,16.0,61,0.00,,,0.77,VWS V13.01,2013-03-12 21:49:00,
2013-03-12 17:54:00,55.9,42.2,31.49,West,272,10.0,18.0,60,0.00,,,0.77,VWS V13.01,2013-03-12 21:54:00,
2013-03-12 17:59:00,55.5,41.9,31.49,WSW,252,3.0,17.0,60,0.00,,,0.77,VWS V13.01,2013-03-12 21:59:00,
2013-03-12 18:04:00,55.5,41.9,31.49,WNW,300,4.0,15.0,60,0.00,,,0.77,VWS V13.01,2013-03-12 22:04:00,
2013-03-12 18:09:00,55.2,41.6,31.49,WNW,287,9.0,13.0,60,0.00,,,0.77,VWS V13.01,2013-03-12 22:09:00,
2013-03-12 18:14:00,54.7,41.1,31.49,West,280,11.0,16.0,60,0.00,,,0.77,VWS V13.01,2013-03-12 22:14:00,
2013-03-12 18:19:00,54.1,41.0,31.49,West,261,5.0,16.0,61,0.00,,,0.77,VWS V13.01,2013-03-12 22:19:00,
2013-03-12 18:24:00,53.8,40.3,31.49,West,261,9.0,14.0,60,0.00,,,0.77,VWS V13.01,2013-03-12 22:24:00,
2013-03-12 18:29:00,53.1,39.6,31.49,WNW,299,10.0,22.0,60,0.00,,,0.77,VWS V13.01,2013-03-12 22:29:00,
2013-03-12 18:34:00,52.7,39.2,31.49,WNW,286,4.0,21.0,60,0.00,,,0.77,VWS V13.01,2013-03-12 22:34:00,
2013-03-12 18:39:00,52.8,39.3,31.49,WSW,251,7.0,13.0,60,0.00,,,0.77,VWS V13.01,2013-03-12 22:39:00,
2013-03-12 18:44:00,52.7,39.2,31.49,WNW,283,11.0,12.0,60,0.00,,,0.77,VWS V13.01,2013-03-12 22:44:00,
2013-03-12 18:49:00,52.4,39.4,31.49,WSW,250,11.0,17.0,61,0.00,,,0.77,VWS V13.01,2013-03-12 22:49:00,
2013-03-12 18:54:00,52.3,38.8,31.49,West,265,7.0,13.0,60,0.00,,,0.77,VWS V13.01,2013-03-12 22:54:00,
2013-03-12 18:59:00,52.0,39.0,31.49,West,265,7.0,15.0,61,0.00,,,0.77,VWS V13.01,2013-03-12 22:59:00,
2013-03-12 19:04:00,51.4,38.8,31.49,WSW,249,13.0,17.0,62,0.00,,,0.77,VWS V13.01,2013-03-12 23:04:00,
2013-03-12 19:09:00,51.0,38.5,31.49,WNW,287,12.0,18.0,62,0.00,,,0.77,VWS V13.01,2013-03-12 23:09:00,
2013-03-12 19:14:00,50.6,38.5,31.49,West,264,4.0,16.0,63,0.00,,,0.77,VWS V13.01,2013-03-12 23:14:00,
2013-03-12 19:19:00,50.5,38.4,31.49,WNW,290,12.0,20.0,63,0.00,,,0.77,VWS V13.01,2013-03-12 23:19:00,
2013-03-12 19:24:00,50.1,38.0,31.49,West,272,9.0,17.0,63,0.00,,,0.77,VWS V13.01,2013-03-12 23:24:00,
2013-03-12 19:29:00,49.9,37.8,31.49,WNW,286,6.0,14.0,63,0.00,,,0.77,VWS V13.01,2013-03-12 23:29:00,
2013-03-12 19:34:00,49.7,37.6,31.49,WNW,286,5.0,20.0,63,0.00,,,0.77,VWS V13.01,2013-03-12 23:34:00,
2013-03-12 19:39:00,49.6,37.5,31.49,WSW,256,10.0,12.0,63,0.00,,,0.77,VWS V13.01,2013-03-12 23:39:00,
2013-03-12 19:44:00,49.5,37.4,31.49,WSW,240,2.0,13.0,63,0.00,,,0.77,VWS V13.01,2013-03-12 23:44:00,
2013-03-12 19:49:00,49.4,37.3,31.49,West,266,12.0,16.0,63,0.00,,,0.77,VWS V13.01,2013-03-12 23:49:00,
2013-03-12 19:54:00,49.0,36.6,31.49,West,281,6.0,25.0,62,0.00,,,0.77,VWS V13.01,2013-03-12 23:54:00,
2013-03-12 19:59:00,48.8,36.4,31.49,WNW,303,5.0,16.0,62,0.00,,,0.77,VWS V13.01,2013-03-12 23:59:00,
2013-03-12 20:04:00,48.7,36.3,31.49,WNW,300,10.0,13.0,62,0.00,,,0.77,VWS V13.01,2013-03-13 00:04:00,
2013-03-12 20:09:00,48.7,36.3,31.49,WSW,253,6.0,9.0,62,0.00,,,0.77,VWS V13.01,2013-03-13 00:09:00,
2013-03-12 20:14:00,48.5,36.1,31.49,NW,308,10.0,17.0,62,0.00,,,0.77,VWS V13.01,2013-03-13 00:14:00,
2013-03-12 20:19:00,48.3,36.3,31.49,West,259,4.0,13.0,63,0.00,,,0.77,VWS V13.01,2013-03-13 00:19:00,
2013-03-12 20:24:00,48.3,36.3,31.49,WNW,292,3.0,9.0,63,0.00,,,0.77,VWS V13.01,2013-03-13 00:24:00,
2013-03-12 20:29:00,48.3,36.3,31.49,WNW,290,0.0,7.0,63,0.00,,,0.77,VWS V13.01,2013-03-13 00:29:00,
2013-03-12 20:34:00,48.2,36.6,31.49,West,265,6.0,10.0,64,0.00,,,0.77,VWS V13.01,2013-03-13 00:34:00,
2013-03-12 20:39:00,48.0,36.4,31.49,WNW,289,9.0,14.0,64,0.00,,,0.77,VWS V13.01,2013-03-13 00:39:00,
2013-03-12 20:44:00,47.8,36.2,31.49,WNW,296,4.0,9.0,64,0.00,,,0.77,VWS V13.01,2013-03-13 00:44:00,
2013-03-12 20:49:00,47.8,36.2,31.49,WNW,290,3.0,9.0,64,0.00,,,0.77,VWS V13.01,2013-03-13 00:49:00,
2013-03-12 20:54:00,47.5,35.9,31.49,West,279,12.0,13.0,64,0.00,,,0.77,VWS V13.01,2013-03-13 00:54:00,
2013-03-12 20:59:00,47.4,35.8,31.49,West,279,4.0,12.0,64,0.00,,,0.77,VWS V13.01,2013-03-13 00:59:00,
2013-03-12 21:04:00,47.3,36.2,31.49,WNW,286,11.0,16.0,65,0.00,,,0.77,VWS V13.01,2013-03-13 01:04:00,
2013-03-12 21:09:00,47.3,36.2,31.49,WNW,282,5.0,12.0,65,0.00,,,0.77,VWS V13.01,2013-03-13 01:09:00,
2013-03-12 21:14:00,47.2,36.0,31.49,West,267,12.0,13.0,65,0.00,,,0.77,VWS V13.01,2013-03-13 01:14:00,
2013-03-12 21:19:00,47.0,35.9,31.49,West,277,4.0,13.0,65,0.00,,,0.77,VWS V13.01,2013-03-13 01:19:00,
2013-03-12 21:24:00,47.0,35.9,31.49,West,280,2.0,9.0,65,0.00,,,0.77,VWS V13.01,2013-03-13 01:24:00,
2013-03-12 21:29:00,46.9,35.8,31.49,West,269,3.0,9.0,65,0.00,,,0.77,VWS V13.01,2013-03-13 01:29:00,
2013-03-12 21:34:00,46.9,35.8,31.49,West,267,4.0,7.0,65,0.00,,,0.77,VWS V13.01,2013-03-13 01:34:00,
2013-03-12 21:39:00,46.9,35.8,31.49,West,277,2.0,6.0,65,0.00,,,0.77,VWS V13.01,2013-03-13 01:39:00,
2013-03-12 21:44:00,46.9,35.8,31.49,WNW,285,6.0,9.0,65,0.00,,,0.77,VWS V13.01,2013-03-13 01:44:00,
2013-03-12 21:49:00,46.6,35.9,31.49,West,279,4.0,5.0,66,0.00,,,0.77,VWS V13.01,2013-03-13 01:49:00,
2013-03-12 21:54:00,46.4,35.3,31.49,SW,236,3.0,13.0,65,0.00,,,0.77,VWS V13.01,2013-03-13 01:54:00,
2013-03-12 21:59:00,46.4,35.3,31.49,WNW,283,9.0,10.0,65,0.00,,,0.77,VWS V13.01,2013-03-13 01:59:00,
2013-03-12 22:04:00,46.4,35.3,31.49,WSW,257,2.0,7.0,65,0.00,,,0.77,VWS V13.01,2013-03-13 02:04:00,
2013-03-12 22:09:00,46.3,35.2,31.49,West,270,4.0,8.0,65,0.00,,,0.77,VWS V13.01,2013-03-13 02:09:00,
2013-03-12 22:14:00,46.1,35.0,31.49,West,275,1.0,6.0,65,0.00,,,0.77,VWS V13.01,2013-03-13 02:14:00,
2013-03-12 22:19:00,46.2,35.1,31.49,West,280,4.0,6.0,65,0.00,,,0.77,VWS V13.01,2013-03-13 02:19:00,
2013-03-12 22:24:00,46.0,35.3,31.49,WSW,257,2.0,6.0,66,0.00,,,0.77,VWS V13.01,2013-03-13 02:24:00,
2013-03-12 22:29:00,45.8,35.1,31.49,WSW,253,5.0,10.0,66,0.00,,,0.77,VWS V13.01,2013-03-13 02:29:00,
2013-03-12 22:34:00,45.9,35.2,31.49,West,271,3.0,9.0,66,0.00,,,0.77,VWS V13.01,2013-03-13 02:34:00,
2013-03-12 22:39:00,45.8,34.7,31.49,West,272,2.0,9.0,65,0.00,,,0.77,VWS V13.01,2013-03-13 02:39:00,
2013-03-12 22:44:00,45.7,34.6,31.49,WNW,286,3.0,8.0,65,0.00,,,0.77,VWS V13.01,2013-03-13 02:44:00,
2013-03-12 22:49:00,45.6,34.5,31.49,WSW,254,3.0,9.0,65,0.00,,,0.77,VWS V13.01,2013-03-13 02:49:00,
2013-03-12 22:54:00,45.5,34.4,31.49,West,272,1.0,6.0,65,0.00,,,0.77,VWS V13.01,2013-03-13 02:54:00,
2013-03-12 22:59:00,45.4,34.3,31.49,West,277,3.0,6.0,65,0.00,,,0.77,VWS V13.01,2013-03-13 02:59:00,
2013-03-12 23:04:00,45.4,34.3,31.49,WSW,254,5.0,6.0,65,0.00,,,0.77,VWS V13.01,2013-03-13 03:04:00,
2013-03-12 23:09:00,45.3,34.2,31.49,West,268,2.0,5.0,65,0.00,,,0.77,VWS V13.01,2013-03-13 03:09:00,
2013-03-12 23:14:00,45.2,34.5,31.49,WSW,257,3.0,6.0,66,0.00,,,0.77,VWS V13.01,2013-03-13 03:14:00,
2013-03-12 23:19:00,45.3,34.6,31.49,West,273,3.0,7.0,66,0.00,,,0.77,VWS V13.01,2013-03-13 03:19:00,
2013-03-12 23:24:00,45.2,34.5,31.49,WSW,254,4.0,9.0,66,0.00,,,0.77,VWS V13.01,2013-03-13 03:24:00,
2013-03-12 23:29:00,45.2,34.2,31.49,WSW,252,4.0,10.0,65,0.00,,,0.77,VWS V13.01,2013-03-13 03:29:00,
2013-03-12 23:34:00,45.0,34.0,31.49,West,261,6.0,10.0,65,0.00,,,0.77,VWS V13.01,2013-03-13 03:34:00,
2013-03-12 23:39:00,45.0,33.6,31.49,West,267,4.0,13.0,64,0.00,,,0.77,VWS V13.01,2013-03-13 03:39:00,
2013-03-12 23:44:00,45.0,33.6,31.49,SW,230,7.0,12.0,64,0.00,,,0.77,VWS V13.01,2013-03-13 03:44:00,
2013-03-12 23:49:00,45.0,33.6,31.49,West,270,5.0,14.0,64,0.00,,,0.77,VWS V13.01,2013-03-13 03:49:00,
2013-03-12 23:54:00,44.9,33.5,31.49,WNW,289,11.0,11.0,64,0.00,,,0.00,VWS V13.01,2013-03-13 03:54:00,
2013-03-12 23:59:00,44.9,33.5,31.49,West,273,3.0,12.0,64,0.00,,,0.00,VWS V13.01,2013-03-13 03:59:00,